Bar Harbor, ME

1:20 PM EST on December 05, 2019 (GMT -0500)
Hancock County-Bar Harbor

Weather History for KBHB - October, 2019

Change the Weather History Date:

Sunday, October 13, 2019

  Actual Average Record
Temperature  
Mean Temperature 54 °F -  
Max Temperature 62 °F 59 °F 75 °F (1954)
Min Temperature 46 °F 41 °F 33 °F (1999)
Degree Days  
Heating Degree Days 11    
Growing Degree Days 4 (Base 50)    
Moisture  
Dew Point 49 °F    
Average Humidity 91    
Maximum Humidity 100    
Minimum Humidity 68    
Precipitation  
Precipitation 0.00 in - - ()
Sea Level Pressure  
Sea Level Pressure 30.02 in    
Wind  
Wind Speed 3 mph (North)    
Max Wind Speed 9 mph    
Max Gust Speed -    
Visibility 7 miles    
Events Fog    
Averages and records for this station are not official NWS values.
T = Trace of Precipitation, MM = Missing Value Source: NWS Daily Summary

Daily Weather History Graph

Daily Weather History Graph

Search for Another Location

Airport or City:

Astronomy

Oct. 13, 2019 Rise Set
Actual Time 6:45 AM EDT 5:53 PM EDT
Civil Twilight 6:16 AM EDT 6:22 PM EDT
Nautical Twilight 5:42 AM EDT 6:55 PM EDT
Astronomical Twilight 5:09 AM EDT 7:29 PM EDT
Moon 6:16 PM EDT (10/13) 6:12 AM EDT (10/13)
Length of Visible Light 12h 05m
Length of Day
11h 07m
Full, 100% of the Moon is Illuminated
Oct 13
Full
Oct 13
Full
Oct 21
Last Quarter
Oct 27
New
Nov 4
First Quarter

Hourly Weather History & Observations

Time (EDT) Temp. Dew Point Humidity Pressure Visibility Wind Dir Wind Speed Gust Speed Precip Events Conditions
12:56 AM 50.0 °F 46.9 °F 89% 29.92 in 10.0 mi North 4.6 mph - N/A   Overcast
1:18 AM 48.2 °F 48.2 °F 100% 29.92 in 10.0 mi NNE 5.8 mph - N/A   Overcast
1:56 AM 48.9 °F 48.0 °F 97% 29.93 in 10.0 mi NNE 5.8 mph - N/A   Overcast
2:56 AM 48.9 °F 48.0 °F 97% 29.95 in 10.0 mi Variable 3.5 mph - N/A   Overcast
3:22 AM 50.0 °F 46.4 °F 87% 29.94 in 10.0 mi North 3.5 mph - N/A   Overcast
3:56 AM 48.9 °F 46.9 °F 93% 29.95 in 10.0 mi Variable 3.5 mph - N/A   Overcast
4:56 AM 48.9 °F 46.9 °F 93% 29.96 in 10.0 mi Calm Calm - N/A   Overcast
5:56 AM 48.0 °F 46.9 °F 96% 29.98 in 10.0 mi WNW 3.5 mph - N/A   Mostly Cloudy
6:56 AM 48.9 °F 48.0 °F 97% 30.00 in 10.0 mi Calm Calm - N/A   Overcast
7:56 AM 51.1 °F 48.0 °F 89% 30.01 in 10.0 mi Calm Calm - N/A   Overcast
8:31 AM 51.8 °F 48.2 °F 88% 30.01 in 10.0 mi North 3.5 mph - N/A   Overcast
8:56 AM 52.0 °F 48.9 °F 89% 30.02 in 10.0 mi Variable 3.5 mph - N/A   Overcast
9:56 AM 53.1 °F 50.0 °F 89% 30.03 in 10.0 mi North 5.8 mph - N/A   Overcast
10:37 AM 55.4 °F 51.8 °F 88% 30.03 in 10.0 mi Variable 4.6 mph - N/A   Overcast
10:56 AM 55.9 °F 51.1 °F 84% 30.03 in 10.0 mi NE 4.6 mph - N/A   Overcast
11:33 AM 57.2 °F 51.8 °F 82% 30.02 in 10.0 mi NNE 8.1 mph - N/A   Mostly Cloudy
11:56 AM 59.0 °F 51.1 °F 75% 30.03 in 10.0 mi North 6.9 mph - N/A   Overcast
12:42 PM 60.8 °F 51.8 °F 72% 30.01 in 10.0 mi West 9.2 mph - N/A   Overcast
12:56 PM 61.0 °F 52.0 °F 72% 30.02 in 10.0 mi Variable 4.6 mph - N/A   Mostly Cloudy
1:56 PM 61.0 °F 52.0 °F 72% 30.02 in 10.0 mi Calm Calm - N/A   Overcast
2:56 PM 62.1 °F 52.0 °F 70% 30.02 in 10.0 mi NNE 4.6 mph - N/A   Overcast
3:48 PM 62.6 °F 51.8 °F 68% 30.01 in 10.0 mi Calm Calm - N/A   Mostly Cloudy
3:56 PM 62.1 °F 52.0 °F 70% 30.01 in 6.0 mi Variable 3.5 mph - N/A   Haze
4:56 PM 62.1 °F 53.1 °F 72% 30.02 in 6.0 mi Calm Calm - N/A   Haze
5:56 PM 55.9 °F 52.0 °F 87% 30.02 in 10.0 mi SSW 4.6 mph - N/A   Clear
6:56 PM 54.0 °F 52.0 °F 93% 30.03 in 10.0 mi South 3.5 mph - N/A   Clear
7:56 PM 53.1 °F 52.0 °F 96% 30.04 in 10.0 mi Calm Calm - N/A   Clear
8:36 PM 51.8 °F 51.8 °F 100% 30.04 in 1.8 mi Calm Calm - N/A   Clear
8:46 PM 51.8 °F 51.8 °F 100% 30.04 in 3.0 mi Calm Calm - N/A   Clear
8:56 PM 50.0 °F 48.9 °F 96% 30.05 in 4.0 mi Calm Calm - N/A   Clear
9:56 PM 48.9 °F 48.9 °F 100% 30.05 in 2.5 mi Calm Calm - N/A   Clear
9:59 PM 48.2 °F 48.2 °F 100% 30.04 in 1.0 mi Calm Calm - N/A   Clear
10:11 PM 48.2 °F 48.2 °F 100% 30.05 in 0.8 mi Calm Calm - N/A   Mist
10:23 PM 48.2 °F 48.2 °F 100% 30.05 in 2.5 mi Calm Calm - N/A   Mostly Cloudy
10:30 PM 48.2 °F 48.2 °F 100% 30.05 in 7.0 mi Calm Calm - N/A   Scattered Clouds
10:56 PM 46.9 °F 46.9 °F 100% 30.05 in 9.0 mi Calm Calm - N/A   Partly Cloudy
11:19 PM 46.4 °F 46.4 °F 100% 30.05 in 10.0 mi Calm Calm - N/A   Mostly Cloudy
11:32 PM 46.4 °F 46.4 °F 100% 30.05 in 1.0 mi Calm Calm - N/A   Mostly Cloudy
11:34 PM 46.4 °F 46.4 °F 100% 30.05 in 0.5 mi Calm Calm - N/A Fog Fog
11:43 PM 46.4 °F 46.4 °F 100% 30.05 in 1.0 mi Calm Calm - N/A   Mostly Cloudy
11:46 PM 46.4 °F 46.4 °F 100% 30.05 in 2.0 mi Calm Calm - N/A   Mostly Cloudy
11:49 PM 46.4 °F 46.4 °F 100% 30.05 in 1.0 mi Calm Calm - N/A   Mostly Cloudy
11:52 PM 46.4 °F 46.4 °F 100% 30.05 in 0.5 mi Calm Calm - N/A Fog Fog
11:56 PM 46.0 °F 46.0 °F 100% 30.06 in 0.5 mi Calm Calm - N/A Fog Fog